When you browse on this site, cookies collect data to enhance your experience and personalize the content and advertising you see.
Visit our Privacy Policy to learn more. By continuing to use the site, you agree to this use of cookies and data.
  • In Portugal
  • List of Countries
  • For 7 days
  • Water Temperature
  • Satellite Maps
  • Weather Map
  • Weather Widgets
  • user-avatar
    Login

    Hourly Weather As-Salt

    Today, 16 July, Tuesday

    Time Temperature Precipitation Wind Pressure Humidity
    00:00 +21°C° 0 mm 1 mps 709 mmHg 87%
    01:00 +20°C° 0 mm 1 mps 708 mmHg 88%
    02:00 +20°C° 0 mm 1 mps 708 mmHg 89%
    03:00 +20°C° 0 mm 1 mps 708 mmHg 89%
    04:00 +20°C° 0 mm 1 mps 708 mmHg 90%
    05:00 +20°C° 0 mm 1 mps 708 mmHg 90%
    06:00 +21°C° 0 mm 1 mps 709 mmHg 81%
    07:00 +23°C° 0 mm 2 mps 709 mmHg 72%
    08:00 +25°C° 0 mm 2 mps 710 mmHg 64%
    09:00 +27°C° 0 mm 3 mps 710 mmHg 55%
    10:00 +29°C° 0 mm 3 mps 710 mmHg 47%
    11:00 +30°C° 0 mm 4 mps 710 mmHg 38%
    12:00 +33°C° 0 mm 4 mps 710 mmHg 35%
    13:00 +34°C° 0 mm 5 mps 709 mmHg 32%
    14:00 +35°C° 0 mm 5 mps 709 mmHg 28%
    15:00 +35°C° 0 mm 5 mps 709 mmHg 28%
    16:00 +34°C° 0 mm 6 mps 709 mmHg 27%
    17:00 +34°C° 0 mm 6 mps 709 mmHg 26%
    18:00 +32°C° 0 mm 4 mps 709 mmHg 32%
    19:00 +28°C° 0 mm 3 mps 709 mmHg 38%
    20:00 +26°C° 0 mm 2 mps 709 mmHg 44%
    21:00 +25°C° 0 mm 2 mps 709 mmHg 45%
    22:00 +24°C° 0 mm 1 mps 708 mmHg 45%
    23:00 +24°C° 0 mm 1 mps 708 mmHg 45%

    Tomorrow, 17 July, Wednesday

    Time Temperature Precipitation Wind Pressure Humidity
    00:00 +23°C° 0 mm 1 mps 708 mmHg 44%
    01:00 +23°C° 0 mm 1 mps 707 mmHg 44%
    02:00 +23°C° 0 mm 1 mps 707 mmHg 44%
    03:00 +23°C° 0 mm 1 mps 707 mmHg 43%
    04:00 +23°C° 0 mm 1 mps 706 mmHg 43%
    05:00 +23°C° 0 mm 1 mps 706 mmHg 43%
    06:00 +26°C° 0 mm 2 mps 707 mmHg 37%
    07:00 +29°C° 0 mm 2 mps 707 mmHg 31%
    08:00 +33°C° 0 mm 3 mps 708 mmHg 26%
    09:00 +35°C° 0 mm 4 mps 708 mmHg 23%
    10:00 +37°C° 0 mm 5 mps 708 mmHg 20%
    11:00 +40°C° 0 mm 6 mps 708 mmHg 18%
    12:00 +41°C° 0 mm 7 mps 708 mmHg 17%
    13:00 +43°C° 0 mm 9 mps 708 mmHg 16%
    14:00 +44°C° 0 mm 10 mps 708 mmHg 14%
    15:00 +42°C° 0 mm 9 mps 708 mmHg 16%
    16:00 +40°C° 0 mm 8 mps 708 mmHg 18%
    17:00 +38°C° 0 mm 7 mps 708 mmHg 19%
    18:00 +35°C° 0 mm 5 mps 708 mmHg 24%
    19:00 +31°C° 0 mm 3 mps 707 mmHg 29%
    20:00 +28°C° 0 mm 1 mps 707 mmHg 34%
    21:00 +27°C° 0 mm 1 mps 707 mmHg 35%
    22:00 +27°C° 0 mm 1 mps 707 mmHg 36%
    23:00 +27°C° 0 mm 1 mps 708 mmHg 36%

    Day after tomorrow, 18 July, Thursday

    Time Temperature Precipitation Wind Pressure Humidity
    00:00 +26°C° 0 mm 1 mps 707 mmHg 41%
    01:00 +25°C° 0 mm 1 mps 707 mmHg 45%
    02:00 +25°C° 0 mm 1 mps 707 mmHg 49%
    03:00 +24°C° 0 mm 1 mps 707 mmHg 53%
    04:00 +24°C° 0 mm 1 mps 707 mmHg 57%
    05:00 +23°C° 0 mm 1 mps 707 mmHg 61%
    06:00 +25°C° 0 mm 2 mps 708 mmHg 54%
    07:00 +28°C° 0 mm 2 mps 708 mmHg 48%
    08:00 +30°C° 0 mm 3 mps 709 mmHg 41%
    09:00 +32°C° 0 mm 4 mps 709 mmHg 37%
    10:00 +33°C° 0 mm 4 mps 709 mmHg 33%
    11:00 +35°C° 0 mm 5 mps 709 mmHg 30%
    12:00 +35°C° 0 mm 6 mps 709 mmHg 28%
    13:00 +36°C° 0 mm 7 mps 709 mmHg 27%
    14:00 +38°C° 0 mm 9 mps 709 mmHg 26%
    15:00 +35°C° 0 mm 8 mps 709 mmHg 29%
    16:00 +34°C° 0 mm 8 mps 709 mmHg 33%
    17:00 +32°C° 0 mm 7 mps 708 mmHg 36%
    18:00 +29°C° 0 mm 6 mps 709 mmHg 45%
    19:00 +26°C° 0 mm 4 mps 709 mmHg 53%
    20:00 +24°C° 0 mm 2 mps 709 mmHg 62%
    21:00 +23°C° 0 mm 2 mps 709 mmHg 65%
    22:00 +21°C° 0 mm 2 mps 709 mmHg 68%
    23:00 +21°C° 0 mm 2 mps 709 mmHg 72%

    19 July, Friday

    Time Temperature Precipitation Wind Pressure Humidity
    00:00 +20°C° 0 mm 2 mps 709 mmHg 76%
    01:00 +20°C° 0 mm 1 mps 709 mmHg 80%
    02:00 +20°C° 0 mm 1 mps 709 mmHg 85%
    03:00 +20°C° 0 mm 1 mps 709 mmHg 86%
    04:00 +19°C° 0 mm 1 mps 709 mmHg 87%
    05:00 +19°C° 0 mm 1 mps 709 mmHg 89%
    06:00 +21°C° 0 mm 1 mps 709 mmHg 80%
    07:00 +23°C° 0 mm 2 mps 710 mmHg 71%
    08:00 +25°C° 0 mm 2 mps 711 mmHg 62%
    09:00 +27°C° 0 mm 3 mps 711 mmHg 54%
    10:00 +28°C° 0 mm 3 mps 710 mmHg 47%
    11:00 +30°C° 0 mm 4 mps 710 mmHg 39%
    12:00 +32°C° 0 mm 4 mps 710 mmHg 36%
    13:00 +33°C° 0 mm 4 mps 710 mmHg 33%
    14:00 +34°C° 0 mm 4 mps 710 mmHg 29%
    15:00 +34°C° 0 mm 5 mps 710 mmHg 32%
    16:00 +33°C° 0 mm 6 mps 709 mmHg 35%
    17:00 +32°C° 0 mm 6 mps 709 mmHg 38%
    18:00 +28°C° 0 mm 5 mps 709 mmHg 48%
    19:00 +26°C° 0 mm 3 mps 709 mmHg 58%
    20:00 +23°C° 0 mm 2 mps 709 mmHg 67%
    21:00 +21°C° 0 mm 2 mps 709 mmHg 71%
    22:00 +21°C° 0 mm 1 mps 709 mmHg 75%
    23:00 +21°C° 0 mm 1 mps 709 mmHg 78%

    20 July, Saturday

    Time Temperature Precipitation Wind Pressure Humidity
    00:00 +20°C° 0 mm 1 mps 709 mmHg 78%
    01:00 +20°C° 0 mm 1 mps 709 mmHg 78%
    02:00 +19°C° 0 mm 1 mps 709 mmHg 79%
    03:00 +19°C° 0 mm 1 mps 709 mmHg 80%
    04:00 +19°C° 0 mm 1 mps 709 mmHg 82%
    05:00 +19°C° 0 mm 1 mps 709 mmHg 83%
    06:00 +21°C° 0 mm 1 mps 709 mmHg 74%
    07:00 +23°C° 0 mm 2 mps 710 mmHg 66%
    08:00 +25°C° 0 mm 2 mps 710 mmHg 57%
    09:00 +27°C° 0 mm 2 mps 710 mmHg 51%
    10:00 +29°C° 0 mm 3 mps 710 mmHg 44%
    11:00 +30°C° 0 mm 3 mps 710 mmHg 38%
    12:00 +33°C° 0 mm 4 mps 710 mmHg 35%
    13:00 +34°C° 0 mm 4 mps 710 mmHg 31%
    14:00 +35°C° 0 mm 4 mps 710 mmHg 28%
    15:00 +34°C° 0 mm 5 mps 710 mmHg 32%
    16:00 +33°C° 0 mm 5 mps 710 mmHg 36%
    17:00 +32°C° 0 mm 6 mps 709 mmHg 40%
    18:00 +29°C° 0 mm 4 mps 709 mmHg 50%
    19:00 +26°C° 0 mm 3 mps 710 mmHg 60%
    20:00 +24°C° 0 mm 2 mps 710 mmHg 70%
    21:00 +23°C° 0 mm 2 mps 710 mmHg 73%
    22:00 +22°C° 0 mm 1 mps 709 mmHg 75%
    23:00 +21°C° 0 mm 1 mps 709 mmHg 78%

    21 July, Sunday

    Time Temperature Precipitation Wind Pressure Humidity
    00:00 +21°C° 0 mm 1 mps 709 mmHg 80%
    01:00 +21°C° 0 mm 1 mps 709 mmHg 81%
    02:00 +20°C° 0 mm 1 mps 709 mmHg 82%
    03:00 +20°C° 0 mm 1 mps 709 mmHg 83%
    04:00 +20°C° 0 mm 1 mps 709 mmHg 84%
    05:00 +19°C° 0 mm 1 mps 709 mmHg 86%
    06:00 +22°C° 0 mm 1 mps 709 mmHg 77%
    07:00 +24°C° 0 mm 2 mps 710 mmHg 68%
    08:00 +26°C° 0 mm 2 mps 710 mmHg 59%
    09:00 +28°C° 0 mm 2 mps 710 mmHg 52%
    10:00 +29°C° 0 mm 2 mps 710 mmHg 44%
    11:00 +31°C° 0 mm 3 mps 710 mmHg 37%
    12:00 +34°C° 0 mm 3 mps 710 mmHg 31%
    13:00 +35°C° 0 mm 3 mps 710 mmHg 26%
    14:00 +37°C° 0 mm 3 mps 709 mmHg 21%
    15:00 +36°C° 0 mm 4 mps 709 mmHg 26%
    16:00 +35°C° 0 mm 4 mps 709 mmHg 32%
    17:00 +34°C° 0 mm 5 mps 709 mmHg 37%
    18:00 +32°C° 0 mm 4 mps 709 mmHg 47%
    19:00 +28°C° 0 mm 3 mps 709 mmHg 56%
    20:00 +25°C° 0 mm 2 mps 709 mmHg 65%
    21:00 +24°C° 0 mm 2 mps 709 mmHg 67%
    22:00 +23°C° 0 mm 2 mps 709 mmHg 69%
    23:00 +23°C° 0 mm 1 mps 709 mmHg 71%
    Show more